sat.trackr.live / text

‹ back to catalog

GPS BIII-8 (PRN 21)

NORAD 64202 · 2025-116A

PAYLOAD ACTIVE UNKNOWN

§ Identity

Operator
Country
US
Launch date
2025-05-30
Launch site
AFETR
Launch vehicle
Mass (kg)
RCS (m²)

Purposes: nav

External: N2YO · Heavens-Above · Gunter

§ Orbital elements

Epoch: 2026-05-24T09:49:13.937376Z

Period
717.93 min
Inclination
55.2184°
Eccentricity
0.0008588
Mean motion
2.00577579 rev/d
Perigee alt
20,158.2 km
Apogee alt
20,203.8 km
Semi-major
26,559.1 km
B*
0.0000e+0
RAAN
32.0868°
Arg perigee
335.9862°
Mean anomaly
205.8678°
Rev number
739

§ Raw data

GPS BIII-8  (PRN 21)1 64202U 25116A   26144.40918909 -.00000106  00000+0  00000+0 0  99922 64202  55.2184  32.0868 0008588 335.9862 205.8678  2.00577579  7390

JSON: /api/v1/satellites/64202 · /tle

For live sub-satellite position, see the globe view (requires WebGL).

§ Visibility from observer

Set your observer location to see the next 7 days of passes ≥ 10°. The values pass through the URL so the page stays shareable.

No JS? Fill the form by hand. The geolocation button needs JavaScript.